ARIANE 5 R/B, 49058

Orbit data source: Space-Track

ARIANE 5 R/B, 49058 is space debris in HEO originally from a launch on Fri, 30 Jul 2021 UTC launched from the French Guiana (FRGUI). Debris objects in space refer to the collection of defunct objects orbiting the Earth. Examples of debris include non-operational satellites, rocket bodies, and fragments generated from explosions, collisions, or faulty payload assembly.

Loading next visibility...
Identifier
49058, 2021-069D
Orbit
HEO
Country
Flag of FRFR
Related business
Manufacturer
ArianeGroup
Mission
Spacecraft
Bus & Motor
ESC-A, Unknown motor
Mass
~5,000 kg wet, ~5,000 kg dry
Launch date (UTC)
2021-07-30 (5 years ago)
Launch vehicle
Unknown
Launch site
French Guiana (FRGUI)
Object type
Payload
Rocket body
Debris
Shape & HBR
Cyl + 1 Nozzle, 3.5 m
Radar Cross Section
41.627 m², Large (>1 m²)

Expand to show TLE details & history
Last TLE update: 3 days ago

TLE from 3 days ago
0 ARIANE 5 R/B
1 49058U 21069D   26170.76192123  .00001553  00000-0  57047-3 0  9991
2 49058   2.9130  41.3624 7121093 283.4257  11.7305  2.47646847 42457
Epoch: 2026-06-19T18:17Z
TLE epoch observation values (Epoch: 2026-06-19T18:17:09.994Z)
Latitude
0.00004°
Longitude
-141.36121°
Altitude
3,353.088 km
Speed
8.04 km/s
True Right ascension
02h 43m 40s
True Declination
0° 00' 00"
Sunlit
Object was in daylight at epoch
Visualization orbit readout
Latitude
Unknown
Longitude
Unknown
Altitude
Unknown
Speed
Unknown
Apparent Right ascension
Unknown
Apparent Declination
Unknown
Sunlit
N/A
Visualization observer readout
Local Sidereal Time
21:32:16
Azimuth
Unknown
Elevation
Unknown
Doppler factor
Unknown
Orbital elements
Apogee altitude
33,141.698 km
Perigee altitude
267.112 km
Semi-major axis
23,082.542 km
Eccentricity
0.71211
Inclination
2.913°
RAAN
41.3624°
Arg. of periapsis
283.4257°
True anomaly
75.64846°
Mean anomaly
11.7305°
Eccentric anomaly
35.31811°
Mean motion
0.6189 °/min
Orbital period
581.68 mins
BSTAR
0.00057047
Loading maneuver chart data...
Computing Atmospheric mass density...
Loading historical data...
Loading historical data...
Loading historical data...
Loading historical data...
Loading historical data...
Loading historical data...
Loading historical data...
Other satellites on launch #69 in the year 2021 (2021-07-30 UTC)

Documentation

Showing up to 5 results
|